Location: Rounton
(54.4000°N, 1.3500°W)
Time: 14:00:57
(UTC+00:00)

Transit 4A - Pass Details

Date: 05 December 2021
Orbit: 864 x 981 km, 66.8° (Epoch: 18 January)

Event Time Altitude Azimuth Distance (km) Brightness Sun altitude
Rises 20:15:58 0° 229° (SW) 3,474 11.3 -38.2°
Reaches altitude 10° 20:18:26 10° 232° (SW) 2,551 10.5 -38.6°
Enters shadow 20:19:57 19° 234° (SW) 2,006 9.9 -38.8°
Maximum altitude 20:24:20 70° 316° (NW) 965 - -39.4°
Drops below altitude 10° 20:30:28 10° 40° (NE) 2,643 - -40.2°
Sets 20:33:04 0° 43° (NE) 3,608 - -40.6°
